カタログに戻る

STARLINK-11553

運用中通信VLEO
NORAD 63006·PAYLOAD·🇺🇸 United States

打ち上げ Feb 15, 2025 から Cape Canaveral Space Force Station

Loading…

次のパス (今後24時間)

TLE

最新Source: CelesTrak SupGP

元期: Sep 14, 2026, 20:40 UTC

1 63006C 25032B   26257.86159722 -.00049616  00000+0 -38541-3 0  2577
2 63006  43.0000 135.4597 0001645 256.2020  22.3287 15.70860057    15

AllMySatでSTARLINK-11553をリアルタイム追跡

Download on the App Store